Regional Weather Roundup
Issued by NWS Albany, NY

Home | Current Version | Previous Version | Text Only | Print | Product List | Glossary On
Versions: 1 2 3 4 5 6 7 8 9 10 11 12 13 14 15 16 17 18 19 20 21 22 23 24 25 26 27 28 29 30 31 32 33 34 35 36 37 38 39 40 41 42 43 44 45 46 47 48 49 50
000
ASUS41 KALY 271910
RWRALY

NEW YORK STATE HOURLY WEATHER ROUNDUP
NATIONAL WEATHER SERVICE ALBANY NY
300 PM EDT WED MAY 27 2015

NOTE: "FAIR" INDICATES FEW OR NO CLOUDS BELOW 12,000 FEET WITH NO
SIGNIFICANT WEATHER AND/OR NO OBSTRUCTIONS TO VISIBILITY.

NYZ032-033-038>043-046>054-057>066-NYZ062>081-272000-
EAST


CITY           SKY/WX    TMP DP  RH WIND       PRES   REMARKS
ALBANY         PTSUNNY   85  66  53 S21G32    30.00F
GLENS FALLS    LGT RAIN  82  67  60 S16G22    29.96F
POUGHKEEPSIE   PTSUNNY   85  67  54 S13G18    30.07F
NEWBURGH       PTSUNNY   84  70  61 SW14      30.10F
MONTGOMERY     PTSUNNY   84  71  65 S13       30.06F
WHITE PLAINS   SUNNY     80  67  64 S14       30.12F
ISLIP          PTSUNNY   72  61  68 S13G26    30.16F
NEW YORK CITY  MOSUNNY   81  64  56 S14G20    30.11F
CENTRAL PARK   SUNNY     81  65  58 VRB7G18   30.14F
$$

NYZ005>009-017-018-044>046-055-056-272000-
CENTRAL


CITY           SKY/WX    TMP DP  RH WIND       PRES   REMARKS
FULTON         PTSUNNY   83  63  50 SW12      29.99F
SYRACUSE       CLOUDY    81  63  54 SW14      30.00F
ROME           CLOUDY    80  64  58 SW13      30.02F
ELMIRA         CLOUDY    81  64  56 SW13      30.05F
BINGHAMTON     RAIN      69  65  86 SW8G16    30.09F
MONTICELLO     MOSUNNY   82  64  54 SW13G23   30.10F
$$

NYZ026>034-041>043-272000-
NORTH


CITY           SKY/WX    TMP DP  RH WIND       PRES   REMARKS
WATERTOWN      MOSUNNY   74  64  71 SW12      29.99F
FORT DRUM      NOT AVBL
MASSENA        CLOUDY    78  63  59 SW25G32   29.94F
SARANAC LAKE   CLOUDY    75  67  76 SW13      30.01F
PLATTSBURGH    PTSUNNY   77  69  76 S9        29.94F
$$

NYZ001>004-010>016-019>021-272000-
WEST


CITY           SKY/WX    TMP DP  RH WIND       PRES   REMARKS
BUFFALO        MOSUNNY   79  58  48 SW22G30   30.01F
DUNKIRK        LGT RAIN  79  60  52 W13       30.02F
JAMESTOWN      MOSUNNY   75  57  53 SW12G22   30.08F
WELLSVILLE     PTSUNNY   76  58  53 SW10G22   30.11F
ROCHESTER      PTSUNNY   83  62  49 SW15      30.00F
PENN YAN       PTSUNNY   80  62  54 S13G20    30.03F
$$

             KEY
       WCI = WIND CHILL INDEX
       VSB = VISIBILITY
       HX  = HEAT INDEX
$$


USA.gov is the U.S. government's official web portal to all federal, state and local government web resources and services.